sat.trackr.live / text

‹ back to catalog

UWE-3

NORAD 39446 · 2013-066AG

PAYLOAD ACTIVE UNKNOWN

§ Identity

Operator
Country
GER
Launch date
2013-11-21
Launch site
DLS
Launch vehicle
Mass (kg)
RCS (m²)
0.03

Purposes: comms, tech_demo

External: N2YO · Heavens-Above · Gunter

§ Orbital elements

Epoch: 2026-05-24T19:40:47.397792Z

Period
96.21 min
Inclination
97.8685°
Eccentricity
0.0050306
Mean motion
14.96792599 rev/d
Perigee alt
541.8 km
Apogee alt
611.8 km
Semi-major
6,955.0 km
B*
3.8651e-4
RAAN
100.7423°
Arg perigee
39.4444°
Mean anomaly
321.0423°
Rev number
67,408

§ Raw data

UWE-31 39446U 13066AG  26144.81999303  .00004477  00000+0  38651-3 0  99982 39446  97.8685 100.7423 0050306  39.4444 321.0423 14.96792599674081

JSON: /api/v1/satellites/39446 · /tle

For live sub-satellite position, see the globe view (requires WebGL).

§ Visibility from observer

Set your observer location to see the next 7 days of passes ≥ 10°. The values pass through the URL so the page stays shareable.

No JS? Fill the form by hand. The geolocation button needs JavaScript.

§ Radio — SatNOGS DB

ModeDescriptionDownlinkUplink
FSK 9k6 FSK TLM 437.385 MHz
FSK PE0SAT - 9k6 FSK TLM 437.384 MHz
FSK Transmitter 436.395 MHz

3 transmitters · refreshed weekly from db.satnogs.org